Location: Lombard
(41.8800°N, 88.0080°W)
Time: 13:44:39
(UTC-06:00)

Transit 4A - Pass Details

Date: 30 November 2023
Orbit: 870 x 973 km, 66.8° (Epoch: 03 March)

Event Time Altitude Azimuth Distance (km) Brightness Sun altitude
Rises 21:41:45 0° 232° (SW) 3,657 - -58.0°
Reaches altitude 10° 21:44:28 10° 239° (WSW) 2,713 - -58.4°
Maximum altitude 21:50:26 41° 309° (NW) 1,372 - -59.3°
Drops below altitude 10° 21:56:23 10° 19° (NNE) 2,698 - -60.3°
Sets 21:59:06 0° 26° (NNE) 3,635 - -60.7°
